EW8080 Weather Reports


Display with metric or nautical units.
time (UTC)temp
F
wind
direction
speed
MPH
gust
MPH
rain 1hr
in
rain 24hr
in
rain mn
in
humidity
%
barometer
mb
20260903220005 76 175 3.0 6.0 0.00 0.18 0.18 87 1011.6
20260903220002 0 0 0.0 0.0 0.00 0.00 0.00 1
20260903215006 77 252 1.0 3.0 0.00 0.18 0.18 87 1011.8
20260903215003 0 0 0.0 0.0 0.00 0.00 0.00 1
20260903214006 77 198 0.0 4.0 0.00 0.18 0.18 88 1011.5
20260903214003 0 0 0.0 0.0 0.00 0.00 0.00 1
20260903213024 0 0 0.0 0.0 0.00 0.00 0.00 1
20260903213005 76 126 0.0 5.0 0.00 0.18 0.18 88 1011.8
20260903212002 0 0 0.0 0.0 0.00 0.00 0.00 1
20260903211002 0 0 0.0 0.0 0.00 0.00 0.00 1
20260903210959 77 137 2.0 6.0 0.00 0.18 0.18 87 1011.6
20260903210002 0 0 0.0 0.0 0.00 0.00 0.00 1
20260903205959 78 229 3.0 6.0 0.00 0.18 0.18 86 1011.6
20260903205002 0 0 0.0 0.0 0.00 0.00 0.00 1
20260903204958 78 224 2.0 7.0 0.00 0.18 0.18 86 1011.5
20260903204021 78 186 2.0 7.0 0.00 0.18 0.18 85 1011.6
20260903204002 0 0 0.0 0.0 0.00 0.00 0.00 1
20260903203004 0 0 0.0 0.0 0.00 0.00 0.00 1
20260903203000 78 167 4.0 9.0 0.00 0.18 0.18 85 1011.5
20260903201959 79 165 4.0 9.0 0.00 0.18 0.18 84 1011.6
20260903200959 78 176 6.0 9.0 0.00 0.18 0.18 85 1011.6
20260903200021 78 189 3.0 10.0 0.00 0.18 0.18 85 1011.9
20260903194959 78 192 4.0 10.0 0.00 0.18 0.18 84 1011.9
20260903194003 0 0 0.0 0.0 0.00 0.00 0.00 1
20260903193959 78 186 5.0 8.0 0.00 0.18 0.18 84 1012.3
20260903193024 0 0 0.0 0.0 0.00 0.00 0.00 1
20260903192959 78 171 4.0 8.0 0.00 0.18 0.18 85 1012.2
20260903192003 0 0 0.0 0.0 0.00 0.00 0.00 1
20260903191959 78 181 4.0 9.0 0.00 0.18 0.18 86 1012.3
20260903191020 78 187 4.0 14.0 0.00 0.18 0.18 86 1012.6
20260903191003 0 0 0.0 0.0 0.00 0.00 0.00 1
20260903190003 0 0 0.0 0.0 0.00 0.00 0.00 1
20260903185959 78 197 5.0 14.0 0.00 0.18 0.18 85 1012.4
20260903185024 0 0 0.0 0.0 0.00 0.00 0.00 1
20260903184959 77 173 6.0 13.0 0.00 0.18 0.18 85 1012.6
20260903184003 0 0 0.0 0.0 0.00 0.00 0.00 1
20260903183959 77 163 7.0 12.0 0.00 0.18 0.18 85 1012.7
20260903183003 0 0 0.0 0.0 0.00 0.00 0.00 1
20260903182959 78 177 4.0 13.0 0.00 0.18 0.18 84 1012.7
20260903182024 0 0 0.0 0.0 0.00 0.00 0.00 1
20260903182000 78 195 3.0 13.0 0.00 0.18 0.18 85 1012.7
20260903181003 0 0 0.0 0.0 0.00 0.00 0.00 1
20260903180959 79 180 5.0 16.0 0.00 0.18 0.18 85 1012.8
20260903180020 78 160 5.0 16.0 0.00 0.18 0.18 85 1012.8
20260903180004 0 0 0.0 0.0 0.00 0.00 0.00 1
20260903175021 78 180 9.0 16.0 0.00 0.18 0.18 86 1013.0
20260903175003 0 0 0.0 0.0 0.00 0.00 0.00 1
20260903174024 0 0 0.0 0.0 0.00 0.00 0.00 1
20260903174000 78 179 4.0 14.0 0.00 0.18 0.18 87 1013.1
20260903173024 0 0 0.0 0.0 0.00 0.00 0.00 1
20260903173000 78 181 7.0 14.0 0.00 0.18 0.18 88 1013.2
20260903172004 0 0 0.0 0.0 0.00 0.00 0.00 1
20260903171959 78 179 4.0 8.0 0.00 0.18 0.18 88 1013.2
20260903171003 0 0 0.0 0.0 0.00 0.00 0.00 1
20260903171000 78 178 4.0 7.0 0.00 0.18 0.18 89 1013.1
20260903170024 0 0 0.0 0.0 0.00 0.00 0.00 1
20260903170000 77 152 4.0 11.0 0.00 0.18 0.18 90 1013.1
20260903165003 0 0 0.0 0.0 0.00 0.00 0.00 1
20260903165000 77 180 4.0 11.0 0.00 0.18 0.18 89 1013.1
20260903164024 0 0 0.0 0.0 0.00 0.00 0.00 1
20260903164000 77 171 4.0 6.0 0.00 0.18 0.18 88 1013.0
20260903163024 0 0 0.0 0.0 0.00 0.00 0.00 1
20260903163021 77 200 2.0 5.0 0.00 0.18 0.18 88 1013.1
20260903162003 0 0 0.0 0.0 0.00 0.00 0.00 1
20260903162000 77 230 2.0 5.0 0.00 0.18 0.18 89 1013.0
20260903161003 0 0 0.0 0.0 0.00 0.00 0.00 1
20260903161000 77 194 1.0 5.0 0.00 0.18 0.18 89 1013.1
20260903160024 0 0 0.0 0.0 0.00 0.00 0.00 1
20260903160000 76 227 3.0 7.0 0.00 0.18 0.18 89 1013.2
20260903155024 0 0 0.0 0.0 0.00 0.00 0.00 1
20260903155021 76 274 3.0 7.0 0.00 0.18 0.18 89 1013.3
20260903154003 0 0 0.0 0.0 0.00 0.00 0.00 1
20260903154000 76 218 4.0 7.0 0.00 0.18 0.18 92 1013.5
20260903153003 0 0 0.0 0.0 0.00 0.00 0.00 1
20260903153000 75 254 2.0 6.0 0.00 0.18 0.18 95 1013.5
20260903152024 0 0 0.0 0.0 0.00 0.00 0.00 1
20260903152021 74 222 3.0 6.0 0.00 0.18 0.18 98 1013.7
20260903151024 0 0 0.0 0.0 0.00 0.00 0.00 1
20260903151000 73 189 3.0 6.0 0.00 0.18 0.18 98 1014.0
20260903150003 0 0 0.0 0.0 0.00 0.00 0.00 1
20260903150000 73 199 2.0 5.0 0.00 0.18 0.18 98 1014.3
20260903145003 0 0 0.0 0.0 0.00 0.00 0.00 1
20260903145000 73 195 2.0 5.0 0.00 0.18 0.18 99 1014.3
20260903144004 0 0 0.0 0.0 0.00 0.00 0.00 1
20260903144000 72 179 2.0 5.0 0.00 0.18 0.18 99 1014.2
20260903143003 0 0 0.0 0.0 0.00 0.00 0.00 1
20260903143000 72 172 2.0 5.0 0.00 0.18 0.18 99 1014.3
20260903142003 0 0 0.0 0.0 0.00 0.00 0.00 1
20260903142000 71 231 2.0 7.0 0.00 0.18 0.18 99 1014.7
20260903141003 0 0 0.0 0.0 0.00 0.00 0.00 1
20260903140003 0 0 0.0 0.0 0.00 0.00 0.00 1
20260903135003 0 0 0.0 0.0 0.00 0.00 0.00 1
20260903134003 0 0 0.0 0.0 0.00 0.00 0.00 1
20260903133003 0 0 0.0 0.0 0.00 0.00 0.00 1
20260903132003 0 0 0.0 0.0 0.00 0.00 0.00 1
20260903131004 0 0 0.0 0.0 0.00 0.00 0.00 1
20260903130003 0 0 0.0 0.0 0.00 0.00 0.00 1
20260903125003 0 0 0.0 0.0 0.00 0.00 0.00 1
20260903124003 0 0 0.0 0.0 0.00 0.00 0.00 1
20260903123003 0 0 0.0 0.0 0.00 0.00 0.00 1
20260903122024 0 0 0.0 0.0 0.00 0.00 0.00 1
20260903121024 0 0 0.0 0.0 0.00 0.00 0.00 1
20260903120003 0 0 0.0 0.0 0.00 0.00 0.00 1
20260903115003 0 0 0.0 0.0 0.00 0.00 0.00 1
20260903114003 0 0 0.0 0.0 0.00 0.00 0.00 1
20260903113003 0 0 0.0 0.0 0.00 0.00 0.00 1
20260903112003 0 0 0.0 0.0 0.00 0.00 0.00 1
20260903111003 0 0 0.0 0.0 0.00 0.00 0.00 1
20260903110003 0 0 0.0 0.0 0.00 0.00 0.00 1
20260903105146 67 174 8.0 17.0 0.08 0.15 0.15 98 1016.0
20260903105003 0 0 0.0 0.0 0.00 0.00 0.00 1
20260903104003 0 0 0.0 0.0 0.00 0.00 0.00 1
20260903103003 0 0 0.0 0.0 0.00 0.00 0.00 1
20260903102024 0 0 0.0 0.0 0.00 0.00 0.00 1
20260903101003 0 0 0.0 0.0 0.00 0.00 0.00 1
20260903100003 0 0 0.0 0.0 0.00 0.00 0.00 1
20260903095003 0 0 0.0 0.0 0.00 0.00 0.00 1
20260903094003 0 0 0.0 0.0 0.00 0.00 0.00 1
20260903093003 0 0 0.0 0.0 0.00 0.00 0.00 1
20260903092158 67 161 8.0 13.0 0.01 0.02 0.02 93 1015.9
20260903092003 0 0 0.0 0.0 0.00 0.00 0.00 1
20260903091003 0 0 0.0 0.0 0.00 0.00 0.00 1
20260903090003 0 0 0.0 0.0 0.00 0.00 0.00 1
20260903085003 0 0 0.0 0.0 0.00 0.00 0.00 1
20260903084003 0 0 0.0 0.0 0.00 0.00 0.00 1
20260903083024 0 0 0.0 0.0 0.00 0.00 0.00 1
20260903082024 0 0 0.0 0.0 0.00 0.00 0.00 1
20260903081129 66 151 5.0 8.0 0.01 0.01 0.01 91 1016.7
20260903081003 0 0 0.0 0.0 0.00 0.00 0.00 1
20260903080003 0 0 0.0 0.0 0.00 0.00 0.00 1
20260903075003 0 0 0.0 0.0 0.00 0.00 0.00 1
20260903074003 0 0 0.0 0.0 0.00 0.00 0.00 1
20260903073130 66 164 3.0 11.0 0.00 0.00 0.00 88 1017.0
20260903073003 0 0 0.0 0.0 0.00 0.00 0.00 1
20260903072003 0 0 0.0 0.0 0.00 0.00 0.00 1
20260903071024 0 0 0.0 0.0 0.00 0.00 0.00 1
20260903070024 0 0 0.0 0.0 0.00 0.00 0.00 1
20260903065003 0 0 0.0 0.0 0.00 0.00 0.00 1
20260903064024 0 0 0.0 0.0 0.00 0.00 0.00 1
20260903063003 0 0 0.0 0.0 0.00 0.00 0.00 1
20260903062003 0 0 0.0 0.0 0.00 0.00 0.00 1
20260903061003 0 0 0.0 0.0 0.00 0.00 0.00 1
20260903060024 0 0 0.0 0.0 0.00 0.00 0.00 1
20260903055003 0 0 0.0 0.0 0.00 0.00 0.00 1
20260903054024 0 0 0.0 0.0 0.00 0.00 0.00 1
20260903053003 0 0 0.0 0.0 0.00 0.00 0.00 1
20260903052135 64 191 3.0 8.0 0.00 0.00 0.00 87 1019.0
20260903052024 0 0 0.0 0.0 0.00 0.00 0.00 1
20260903051003 0 0 0.0 0.0 0.00 0.00 0.00 1
20260903050024 0 0 0.0 0.0 0.00 0.00 0.00 1
20260903045003 0 0 0.0 0.0 0.00 0.00 0.00 1
20260903044003 0 0 0.0 0.0 0.00 0.00 0.00 1
20260903043024 0 0 0.0 0.0 0.00 0.00 0.00 1
20260903042024 0 0 0.0 0.0 0.00 0.00 0.00 1
20260903042004 63 41 2.0 6.0 0.00 0.00 0.00 88 1019.1
20260903041003 0 0 0.0 0.0 0.00 0.00 0.00 1
20260903040024 0 0 0.0 0.0 0.00 0.00 0.00 1
20260903035004 63 112 1.0 3.0 0.00 0.00 0.00 86 1019.2
20260903034025 64 120 1.0 3.0 0.00 0.00 0.00 85 1019.3
20260903034003 0 0 0.0 0.0 0.00 0.00 0.00 1
20260903033004 64 119 0.0 3.0 0.00 0.00 0.00 84 1019.2
20260903032025 0 0 0.0 0.0 0.00 0.00 0.00 1
20260903032004 64 134 1.0 2.0 0.00 0.00 0.00 84 1019.5
20260903031004 64 83 1.0 4.0 0.00 0.00 0.00 83 1019.4
20260903030004 65 5 1.0 8.0 0.00 0.00 0.00 83 1019.5
20260903025004 65 177 3.0 10.0 0.00 0.00 0.00 81 1019.6
20260903024004 65 173 5.0 11.0 0.00 0.00 0.00 81 1019.5
20260903024002 0 0 0.0 0.0 0.00 0.00 0.00 1
20260903023025 65 144 4.0 11.0 0.00 0.00 0.00 82 1019.3
20260903023003 0 0 0.0 0.0 0.00 0.00 0.00 1
20260903022004 65 179 5.0 8.0 0.00 0.00 0.00 84 1019.6
20260903021025 65 143 3.0 11.0 0.00 0.00 0.00 85 1019.8
20260903021023 0 0 0.0 0.0 0.00 0.00 0.00 1
20260903020025 65 174 3.0 11.0 0.00 0.00 0.00 85 1020.0
20260903015004 65 173 3.0 6.0 0.00 0.00 0.00 84 1019.8
20260903015002 0 0 0.0 0.0 0.00 0.00 0.00 1
20260903014004 65 141 4.0 6.0 0.00 0.00 0.00 84 1020.1
20260903014002 0 0 0.0 0.0 0.00 0.00 0.00 1
20260903013004 66 129 3.0 6.0 0.00 0.00 0.00 83 1020.2
20260903013002 0 0 0.0 0.0 0.00 0.00 0.00 1
20260903012004 66 167 2.0 6.0 0.00 0.00 0.00 83 1020.4
20260903010004 66 180 5.0 8.0 0.00 0.00 0.00 81 1020.2
20260903005004 67 123 2.0 7.0 0.00 0.00 0.00 80 1020.4
20260903004004 67 180 3.0 9.0 0.00 0.00 0.00 80 1020.1
20260903003004 67 172 3.0 10.0 0.00 0.00 0.00 79 1020.3
20260903002005 67 161 6.0 10.0 0.00 0.00 0.00 79 1020.5
20260903001005 67 154 3.0 9.0 0.00 0.00 0.00 79 1020.5
20260903000005 67 164 7.0 8.0 0.00 0.00 0.00 79 1020.6
20260902235005 68 194 4.0 8.0 0.00 0.00 0.00 78 1020.6
20260902234026 68 162 3.0 7.0 0.00 0.00 0.00 76 1020.8
20260902233003 68 151 3.0 7.0 0.00 0.00 0.00 74 1020.8